STARLINK-32702 (62432 NORAD) Tracking and Keplerian Element Data

This shows tracking and keplerian element data for the satellite.

Feedback or suggestion? Click here.




ElementValue
Catalog62432
NameSTARLINK-32702
Epoch Orbit681
Epoch Day35.18260099
Epoch Year2025
RAAN34.9683
Inclination53.1632
Eccentricity0.0002163
Argument of Perigee78.3347
Mean Anonmoly281.7901
Mean Motion15.3963981
Decay Rate2.594E-05
L11 62432U 24251A 25035.18260099 .00002594 00000+0 74767-4 0 9995
L22 62432 53.1632 34.9683 0002163 78.3347 281.7901 15.39639810 6814



Live tracking and technical data element details for STARLINK-32702 (NORAD 62432). STARLINK-32702 can be tracked NOW for your location showing map with azimuth and elevation plus other details from your city location.







IsCatalogInMostPopularTable: catalog: 62432, numindb: 14
Update: records affected: 1



GetName: 62432 STARLINK-32702

Hit Count: updated at: Sat, 24 May 2025 17:21:06 GMT